Regional Weather Roundup
Issued by NWS Cleveland, OH

Home | Current Version | Previous Version | Graphics & Text | Print | Product List | Glossary On
Versions: 1 2 3 4 5 6 7 8 9 10 11 12 13 14 15 16 17 18 19 20 21 22 23 24 25 26 27 28 29 30 31 32 33 34 35 36 37 38 39 40 41 42 43 44 45 46 47 48 49 50
000
ASUS41 KCLE 292010
RWRCLE
OHIO REGIONAL WEATHER ROUNDUP
NATIONAL WEATHER SERVICE CLEVELAND, OH
400 PM EDT WED MAR 29 2017

NOTE: "FAIR" INDICATES FEW OR NO CLOUDS BELOW 12,000 FEET WITH NO
SIGNIFICANT WEATHER AND/OR OBSTRUCTIONS TO VISIBILITY.

OHZ001>008-015>018-024>027-034-035-043-044-292100-
   NORTHWEST OHIO

CITY           SKY/WX    TMP DP  RH WIND       PRES   REMARKS
DEFIANCE       MOSUNNY   54  32  43 E13       30.23R
FINDLAY        MOSUNNY   58  32  37 NE17G23   30.20F
TOLEDO EXPRESS PTSUNNY   53  29  39 NE15      30.25S
TOLEDO EXEC    MOSUNNY   52  31  44 E10G18    30.26F
LIMA           SUNNY     54  41  61 NE7       30.19F
$$

OHZ009>014-019>023-028>033-038-089-292100-
   NORTHEAST OHIO

CITY           SKY/WX    TMP DP  RH WIND       PRES   REMARKS
CLE-HOPKINS    MOSUNNY   50  34  54 N14       30.27S
CLE-LAKEFRONT  SUNNY     42  37  82 NE12      30.26S
CUY CO. ARPT   PTSUNNY   50  36  57 N14       30.25S
LORAIN-ELYRIA  SUNNY     49  35  58 NE13      30.24R
ASHTABULA      SUNNY     52  30  43 NE8G18    30.25S
AKRON-CANTON   MOSUNNY   57  33  40 E6        30.19F
WOOSTER        SUNNY     56  34  43 NE7       30.19F
MANSFIELD      SUNNY     55  37  50 NE9       30.19F
YOUNGSTOWN     PTSUNNY   57  33  40 N13       30.21S
$$

OHZ042-051>053-060>062-070>072-077>081-292100-
  SOUTHWEST OHIO

CITY           SKY/WX    TMP DP  RH WIND       PRES   REMARKS
CINC-COVINGTON PTSUNNY   56  44  64 E15       30.11F
CINC-LUNKEN    PTSUNNY   57  48  72 NE10      30.13F
HAMILTON       MOSUNNY   56  46  69 E12       30.14F
DAYTON         MOSUNNY   60  39  45 E12       30.15F
WRIGHT-PAT AFB SUNNY     61  40  45 NE12      30.14F
DAYTON GENERAL SUNNY     58  43  57 E9        30.13F
WILMINGTON     MOSUNNY   54  44  69 E8        30.15F
$$

OHZ036-037-039>041-045>050-054>059-063>069-073>076-082>088-292100-
  CENTRAL AND SOUTHEAST OHIO

CITY           SKY/WX    TMP DP  RH WIND       PRES   REMARKS
COLUMBUS       MOSUNNY   62  38  40 E8        30.16F
OSU AIRPORT    SUNNY     59  38  45 E7        30.16F
BOLTON FIELD   SUNNY     61  39  44 NE6       30.17S
RICKENBACK AFB SUNNY     59  40  48 NE7       30.16F
NEWARK         SUNNY     62  34  35 VRB5      30.16S
MARION         SUNNY     56  39  53 NE9       30.19F
LANCASTER      SUNNY     62  39  42 NE9       30.17S
ZANESVILLE     SUNNY     62  35  36 VRB3      30.16F
NEW PHILLY     NOT AVBL
$$



USA.gov is the U.S. government's official web portal to all federal, state and local government web resources and services.